This demonstration page uses our WeatherBlox Daily Observations layout. Learn more.

Left ArrowRight Arrow

Hourly Observations for September 18, 2021

Temp ( °F °C ) Dew Point ( °F °C ) Humidity (%) Winds ( mph kmh ) Pressure ( in mb ) Visibility ( mi km ) Precip ( " mm )
12:54 am 00:54 Clear 58 14.4 51 10.6 78 78 N N/A 30.18 1022 10 16 N/A
1:54 am 01:54 Clear 56 13.3 51 10.6 84 84 NNW 3 6 30.18 1022 10 16 N/A
2:54 am 02:54 Clear 55 12.8 51 10.6 87 87 N 6 9 30.19 1022 10 16 N/A
3:54 am 03:54 Mostly Cloudy 56 13.3 52 11.1 87 87 N 7 11 30.19 1022 10 16 N/A
4:54 am 04:54 Cloudy 58 14.4 52 11.1 81 81 N 3 6 30.19 1022 10 16 N/A
5:54 am 05:54 Partly Cloudy 56 13.3 51 10.6 84 84 NNE 3 6 30.19 1022 10 16 N/A
6:54 am 06:54 Mostly Clear 58 14.4 50 10 75 75 ENE 5 7 30.18 1022 10 16 N/A
7:54 am 07:54 Sunny 57 13.9 51 10.6 81 81 NE 5 7 30.18 1022 10 16 N/A
8:54 am 08:54 Sunny 63 17.2 52 11.1 68 68 ESE 5 7 30.18 1022 10 16 N/A
9:54 am 09:54 Sunny 69 20.6 55 12.8 61 61 VRB 5 7 30.18 1022 10 16 N/A
10:54 am 10:54 Sunny 74 23.3 59 15 60 60 SE 6 9 30.17 1022 10 16 N/A
11:54 am 11:54 Sunny 79 26.1 62 16.7 56 56 S 7 11 30.14 1021 10 16 N/A
12:54 pm 12:54 Sunny 84 28.9 64 17.8 51 51 S 8 13 30.10 1019 10 16 N/A
1:54 pm 13:54 Sunny 88 31.1 65 18.3 46 46 SSW 14 22 30.07 1018 10 16 N/A
2:54 pm 14:54 Sunny 90 32.2 65 18.3 44 44 SSW 12 19 30.04 1017 10 16 N/A
3:54 pm 15:54 Sunny 91 32.8 65 18.3 42 42 S 16 26 30.01 1016 10 16 N/A
4:54 pm 16:54 Sunny 90 32.2 63 17.2 41 41 S 18 30 29.99 1016 10 16 N/A
5:54 pm 17:54 Sunny 89 31.7 63 17.2 42 42 S 17 28 29.98 1015 10 16 N/A
6:54 pm 18:54 Sunny 85 29.4 62 16.7 46 46 S 14 22 29.97 1015 10 16 N/A
7:54 pm 19:54 Clear 78 25.6 62 16.7 58 58 S 9 15 29.98 1015 10 16 N/A
8:54 pm 20:54 Clear 74 23.3 62 16.7 67 67 SSE 10 17 29.98 1015 10 16 N/A
9:54 pm 21:54 Clear 72 22.2 62 16.7 71 71 S 7 11 29.99 1016 10 16 N/A
10:54 pm 22:54 Clear 70 21.1 62 16.7 76 76 SSE 8 13 29.99 1016 10 16 N/A
11:54 pm 23:54 Clear 72 22.2 63 17.2 73 73 S 9 15 29.99 1016 10 16 N/A

Powered by AerisWeather